TimeMST,TemperatureF,Dew PointF,Humidity,Sea Level PressureIn,VisibilityMPH,Wind Direction,Wind SpeedMPH,Gust SpeedMPH,PrecipitationIn,Events,Conditions,WindDirDegrees,DateUTC
12:15 AM,30.2,26.6,86,29.90,9.0,NW,18.4,26.5,N/A,Snow,Light Snow,310,2013-01-29 07:15:00
12:35 AM,30.2,26.6,86,29.89,9.0,NW,21.9,31.1,N/A,Snow,Light Snow,310,2013-01-29 07:35:00
12:55 AM,30.2,26.6,86,29.90,10.0,NW,21.9,35.7,N/A,,Clear,320,2013-01-29 07:55:00
1:15 AM,28.4,24.8,86,29.90,10.0,NW,19.6,25.3,N/A,,Partly Cloudy,320,2013-01-29 08:15:00
1:35 AM,28.4,24.8,86,29.91,10.0,NW,15.0,20.7,N/A,,Clear,320,2013-01-29 08:35:00
1:55 AM,28.4,26.6,93,29.90,10.0,NW,15.0,-,N/A,,Partly Cloudy,310,2013-01-29 08:55:00
2:15 AM,28.4,26.6,93,29.89,10.0,NW,10.4,-,N/A,,Mostly Cloudy,310,2013-01-29 09:15:00
2:35 AM,28.4,24.8,86,29.89,10.0,NW,8.1,-,N/A,,Partly Cloudy,320,2013-01-29 09:35:00
2:55 AM,28.4,24.8,86,29.88,10.0,NW,6.9,-,N/A,,Partly Cloudy,310,2013-01-29 09:55:00
3:15 AM,26.6,24.8,93,29.87,10.0,NW,16.1,-,N/A,,Clear,310,2013-01-29 10:15:00
3:35 AM,26.6,24.8,93,29.87,10.0,NW,13.8,-,N/A,,Partly Cloudy,310,2013-01-29 10:35:00
3:55 AM,26.6,24.8,93,29.87,10.0,NW,17.3,20.7,N/A,,Scattered Clouds,310,2013-01-29 10:55:00
4:15 AM,26.6,24.8,93,29.86,10.0,NW,13.8,-,N/A,,Clear,310,2013-01-29 11:15:00
4:35 AM,26.6,24.8,93,29.86,10.0,NW,12.7,17.3,N/A,,Partly Cloudy,310,2013-01-29 11:35:00
4:55 AM,28.4,24.8,86,29.86,10.0,WNW,15.0,21.9,N/A,,Clear,300,2013-01-29 11:55:00
5:15 AM,28.4,24.8,86,29.86,10.0,WNW,9.2,17.3,N/A,,Clear,290,2013-01-29 12:15:00
5:35 AM,26.6,23.0,86,29.86,10.0,WNW,9.2,-,N/A,,Clear,300,2013-01-29 12:35:00
5:55 AM,26.6,23.0,86,29.87,10.0,NW,9.2,-,N/A,,Clear,310,2013-01-29 12:55:00
6:15 AM,26.6,23.0,86,29.87,10.0,WNW,15.0,-,N/A,,Clear,300,2013-01-29 13:15:00
6:35 AM,26.6,23.0,86,29.87,10.0,WNW,12.7,-,N/A,,Clear,290,2013-01-29 13:35:00
6:55 AM,26.6,23.0,86,29.87,10.0,WNW,17.3,24.2,N/A,,Clear,290,2013-01-29 13:55:00
7:15 AM,26.6,23.0,86,29.88,10.0,WNW,8.1,-,N/A,,Scattered Clouds,300,2013-01-29 14:15:00
7:35 AM,26.6,23.0,86,29.88,10.0,WNW,15.0,18.4,N/A,,Mostly Cloudy,290,2013-01-29 14:35:00
7:55 AM,26.6,23.0,86,29.87,10.0,WNW,26.5,34.5,N/A,,Partly Cloudy,300,2013-01-29 14:55:00
8:15 AM,28.4,23.0,80,29.87,10.0,WNW,27.6,36.8,N/A,,Clear,290,2013-01-29 15:15:00
8:35 AM,28.4,21.2,74,29.87,10.0,WNW,28.8,35.7,N/A,,Clear,290,2013-01-29 15:35:00
8:55 AM,28.4,21.2,74,29.89,10.0,WNW,29.9,38.0,N/A,Rain,Freezing Rain,300,2013-01-29 15:55:00
9:15 AM,28.4,21.2,74,29.89,10.0,WNW,31.1,39.1,N/A,,Partly Cloudy,290,2013-01-29 16:15:00
9:35 AM,30.2,19.4,64,29.89,10.0,WNW,33.4,39.1,N/A,,Clear,290,2013-01-29 16:35:00
9:55 AM,30.2,19.4,64,29.90,10.0,WNW,29.9,38.0,N/A,,Clear,290,2013-01-29 16:55:00
10:15 AM,32.0,19.4,60,29.90,10.0,West,33.4,42.6,N/A,,Clear,280,2013-01-29 17:15:00
10:35 AM,32.0,19.4,60,29.90,10.0,West,31.1,43.7,N/A,,Partly Cloudy,280,2013-01-29 17:35:00
10:55 AM,32.0,19.4,60,29.92,10.0,West,26.5,41.4,N/A,,Scattered Clouds,280,2013-01-29 17:55:00
11:15 AM,32.0,19.4,60,29.91,10.0,West,26.5,34.5,N/A,,Scattered Clouds,270,2013-01-29 18:15:00
11:35 AM,32.0,19.4,60,29.90,10.0,WNW,27.6,40.3,N/A,,Partly Cloudy,300,2013-01-29 18:35:00
11:55 AM,32.0,19.4,60,29.89,10.0,WNW,34.5,42.6,N/A,,Partly Cloudy,290,2013-01-29 18:55:00
12:15 PM,35.6,21.2,56,29.89,10.0,WNW,33.4,43.7,N/A,,Partly Cloudy,290,2013-01-29 19:15:00
12:35 PM,33.8,17.6,52,29.88,10.0,WNW,32.2,43.7,N/A,,Partly Cloudy,290,2013-01-29 19:35:00
12:55 PM,35.6,17.6,48,29.88,10.0,West,35.7,42.6,N/A,,Clear,280,2013-01-29 19:55:00
1:15 PM,33.8,17.6,52,29.88,10.0,WNW,29.9,42.6,N/A,,Clear,300,2013-01-29 20:15:00
1:35 PM,33.8,17.6,52,29.87,10.0,WNW,36.8,44.9,N/A,,Clear,300,2013-01-29 20:35:00
1:55 PM,33.8,17.6,52,29.89,10.0,WNW,31.1,49.5,N/A,,Partly Cloudy,290,2013-01-29 20:55:00
2:15 PM,33.8,17.6,52,29.89,10.0,WNW,28.8,39.1,N/A,,Partly Cloudy,290,2013-01-29 21:15:00
2:35 PM,32.0,17.6,55,29.89,7.0,WNW,27.6,36.8,N/A,Snow,Light Snow,290,2013-01-29 21:35:00
2:55 PM,32.0,15.8,51,29.89,10.0,WNW,29.9,40.3,N/A,Rain,Light Rain,290,2013-01-29 21:55:00
3:15 PM,33.8,15.8,48,29.89,10.0,West,29.9,36.8,N/A,,Scattered Clouds,280,2013-01-29 22:15:00
3:35 PM,35.6,15.8,44,29.89,10.0,West,32.2,43.7,N/A,,Partly Cloudy,280,2013-01-29 22:35:00
3:55 PM,35.6,15.8,44,29.90,10.0,West,29.9,38.0,N/A,,Partly Cloudy,280,2013-01-29 22:55:00
4:15 PM,35.6,15.8,44,29.91,10.0,WNW,28.8,38.0,N/A,,Scattered Clouds,290,2013-01-29 23:15:00
4:35 PM,35.6,15.8,44,29.92,10.0,WNW,27.6,34.5,N/A,,Partly Cloudy,290,2013-01-29 23:35:00
4:55 PM,35.6,15.8,44,29.93,10.0,WNW,20.7,29.9,N/A,,Clear,290,2013-01-29 23:55:00
5:15 PM,33.8,15.8,48,29.93,10.0,West,20.7,29.9,N/A,,Partly Cloudy,280,2013-01-30 00:15:00
5:35 PM,32.0,15.8,51,29.94,10.0,West,19.6,-,N/A,,Partly Cloudy,280,2013-01-30 00:35:00
5:55 PM,32.0,15.8,51,29.95,10.0,West,23.0,28.8,N/A,,Scattered Clouds,280,2013-01-30 00:55:00
6:15 PM,32.0,15.8,51,29.96,10.0,WNW,21.9,-,N/A,,Partly Cloudy,290,2013-01-30 01:15:00
6:35 PM,32.0,17.6,55,29.97,10.0,WNW,12.7,-,N/A,,Clear,300,2013-01-30 01:35:00
6:55 PM,32.0,17.6,55,29.99,10.0,West,11.5,-,N/A,,Scattered Clouds,280,2013-01-30 01:55:00
7:15 PM,32.0,17.6,55,29.99,10.0,West,11.5,-,N/A,,Mostly Cloudy,280,2013-01-30 02:15:00
7:35 PM,32.0,17.6,55,30.00,10.0,WNW,11.5,21.9,N/A,,Mostly Cloudy,290,2013-01-30 02:35:00
7:55 PM,32.0,19.4,60,30.01,10.0,WNW,9.2,-,N/A,,Scattered Clouds,290,2013-01-30 02:55:00
8:15 PM,30.2,21.2,69,30.02,5.0,NW,12.7,21.9,N/A,,Mostly Cloudy,310,2013-01-30 03:15:00
8:35 PM,28.4,24.8,86,30.02,10.0,NNW,5.8,-,N/A,,Mostly Cloudy,330,2013-01-30 03:35:00
8:55 PM,28.4,23.0,80,30.03,10.0,NW,5.8,-,N/A,,Partly Cloudy,310,2013-01-30 03:55:00
9:15 PM,30.2,21.2,69,30.03,10.0,WNW,15.0,-,N/A,Snow,Light Snow,290,2013-01-30 04:15:00
9:35 PM,30.2,19.4,64,30.03,10.0,WNW,16.1,-,N/A,,Clear,300,2013-01-30 04:35:00
9:55 PM,28.4,24.8,86,30.04,1.2,WNW,15.0,-,N/A,Snow,Light Snow,300,2013-01-30 04:55:00
10:15 PM,26.6,24.8,93,30.04,10.0,NNW,8.1,-,N/A,,Scattered Clouds,330,2013-01-30 05:15:00
10:35 PM,26.6,24.8,93,30.05,10.0,WNW,9.2,-,N/A,,Mostly Cloudy,300,2013-01-30 05:35:00
10:55 PM,28.4,23.0,80,30.05,10.0,WNW,18.4,24.2,N/A,,Partly Cloudy,300,2013-01-30 05:55:00
11:15 PM,28.4,23.0,80,30.05,10.0,North,-9999.0,-,N/A,,Clear,0,2013-01-30 06:15:00
11:35 PM,26.6,23.0,86,30.06,10.0,NW,10.4,-,N/A,,Partly Cloudy,310,2013-01-30 06:35:00
11:55 PM,28.4,23.0,80,30.06,10.0,NW,10.4,-,N/A,,Partly Cloudy,310,2013-01-30 06:55:00